Location: Chamberlain Observatory
(39.0028°N, 90.1630°W)
Time: 00:09:53
(UTC-06:00)

Daily predictions for brighter satellites

Satellite Brightness Start Highest point End
(mag) Time Altitude Azimuth Time Altitude Azimuth Time Altitude Azimuth
Atlas Centaur 2 4.0 03:19:19 35° SE 03:19:19 35° SE 03:24:42 10° ESE
SL-16 R/B 3.6 03:41:37 35° ESE 03:41:45 35° ESE 03:46:51 10° NE
CZ-4B R/B 3.7 04:00:05 10° NNE 04:05:41 58° E 04:11:14 10° S
Cosmos 2278 Rocket 3.6 04:18:25 25° S 04:18:25 25° S 04:20:45 10° S
PAYLOAD B 4.3 04:18:00 10° NNE 04:22:47 66° N 04:22:47 66° N
Cosmos 1802 Rocket 3.9 04:29:04 64° SW 04:29:04 64° SW 04:34:42 10° S
IRS-1C Rocket 4.1 04:23:31 10° NNE 04:28:48 80° ESE 04:34:02 10° S
In-Cosmos 22 Rocket 4.1 04:29:56 78° W 04:30:02 78° W 04:35:52 10° N
ISS -0.9 04:35:31 12° SSE 04:35:31 12° SSE 04:35:48 10° SSE
Meteor 1-28 Rocket 4.2 04:29:37 10° SSE 04:33:05 45° E 04:33:05 45° E
USA 229 DEB 4.1 04:31:48 27° NNW 04:35:59 65° NE 04:43:16 10° SE
USA 229 4.1 04:31:52 27° NNW 04:36:04 65° NE 04:43:21 10° SE
Okean-O 4.2 04:34:38 10° NNE 04:38:43 35° E 04:42:45 10° SSE
Landsat 4 4.3 04:39:24 10° SSE 04:43:01 55° ENE 04:43:26 51° NE
SL-08 R/B 4.4 04:37:13 10° N 04:43:39 75° W 04:50:00 10° S
Hubble Space Telescope 2.9 04:45:22 17° S 04:45:54 17° S 04:48:39 10° SE
CZ-4B DEB 4.3 04:43:37 10° N 04:49:01 53° WNW 04:49:10 53° WNW
Cosmos 1486 Rocket 4.2 04:50:24 50° WSW 04:50:24 50° WSW 04:55:11 10° S
Cosmos 2237 Rocket 3.8 04:53:27 19° NNW 04:53:27 19° NNW 04:55:36 10° N
Cosmos 2123 Rocket 3.9 04:44:56 10° SSW 04:51:05 67° W 04:57:20 10° N
Cosmos 1725 Rocket 3.8 04:47:50 10° NNW 04:54:01 72° W 05:00:09 10° S
CZ-2C R/B 3.5 04:52:17 10° S 04:56:48 80° WSW 04:58:47 33° NNW
Cosmos 2333 Rocket 4.3 05:00:09 11° NNW 05:00:09 11° NNW 05:00:38 10° NNW
MTI 4.1 04:57:21 10° SSE 05:00:30 64° ENE 05:01:01 52° NNE
Lacrosse 5 rocket 1.5 05:03:21 45° WSW 05:04:40 71° NW 05:09:20 10° NE
ATLAS 5 CENTAUR R/B 4.2 05:01:31 10° SSE 05:05:05 23° ESE 05:08:50 10° ENE
Cosmos 1354 Rocket 3.9 05:01:58 25° NNW 05:05:07 75° WSW 05:10:19 10° S
Atlas Centaur 2 3.8 05:01:57 24° WSW 05:06:10 41° S 05:14:01 10° SE
Meteor 2-3 Rocket 3.6 05:01:20 10° SSW 05:07:06 72° W 05:12:50 10° N
Cosmos 1825 3.2 05:03:33 10° SSE 05:07:10 47° E 05:10:49 10° NNE
USA 32 3.9 05:04:02 10° S 05:09:15 80° W 05:14:30 10° N
Cosmos 1933 Rocket 3.7 05:05:09 10° SSW 05:09:20 47° W 05:13:34 10° N
PSLV R/B 3.1 05:09:24 64° S 05:09:36 67° SSE 05:12:45 10° ENE
SL-8 R/B 4.2 05:08:50 17° SW 05:12:25 59° SE 05:17:07 10° ENE
USA 215 4.4 05:07:12 10° ENE 05:13:22 43° SE 05:19:30 10° SSW
COSMO-SKYMED 1 2.7 05:09:26 10° SSE 05:13:45 77° ENE 05:18:06 10° N
Cosmos 1447 Rocket 4.4 05:08:08 10° S 05:14:27 80° W 05:20:47 10° N
DELTA 2 R/B (1) 3.5 05:17:42 31° W 05:20:32 88° S 05:26:08 10° ESE
SL-16 R/B 2.9 05:23:39 24° W 05:25:51 32° WNW 05:30:54 10° N
Cosmos 2084 Rocket 3.0 05:25:40 26° NW 05:27:44 81° WSW 05:31:36 10° SSE
Cosmos 1606 2.8 05:24:27 10° N 05:28:16 78° E 05:32:05 10° S
Cosmos 1603 3.6 05:24:51 10° SSW 05:30:29 84° WNW 05:36:12 10° NNE
Feng Yun 1-1 Rocket 4.3 05:24:54 10° N 05:30:47 66° WNW 05:36:37 10° SSW
Cosmos 1782 2.8 05:27:43 10° N 05:31:43 84° E 05:35:39 10° S
Cosmos 1862 Rocket 4.4 05:31:12 24° WNW 05:32:29 28° W 05:36:17 10° SSW
Abrixas rocket 4.3 05:42:24 13° NNW 05:43:38 15° N 05:45:38 10° NE
CZ-4B R/B 4.5 05:41:45 10° NNW 05:45:43 20° WNW 05:49:41 10° WSW
Cosmos 1464 Rocket 4.2 05:41:48 10° N 05:48:05 81° E 05:54:26 10° S
Delta 2 Rocket 4.4 05:46:47 15° WSW 05:49:49 38° SSW 05:54:08 10° SE
Cosmos 2369 Rocket 2.6 05:47:57 10° NNW 05:53:32 65° ENE 05:59:04 10° SSE
Lacrosse 4 Rocket 4.2 05:50:39 10° SSE 05:54:12 24° ESE 05:57:42 10° NE
Cosmos 405 Rocket 2.5 05:52:38 10° N 05:56:21 84° W 06:00:06 10° S
Cosmos 1408 3.4 05:54:13 10° SW 05:57:33 30° WNW 06:00:54 10° NNW
Okean 1-7 3.1 05:53:26 10° NNW 05:57:47 60° W 06:02:03 10° S
SKYMED 2 4.4 05:58:05 10° SSW 06:01:53 30° W 06:05:43 10° NW
Cosmos 1862 3.2 05:58:36 10° S 06:02:33 77° W 06:06:32 10° N
NOSS 3-1 (C) 4.2 05:58:50 10° NW 06:06:32 69° WSW 06:14:59 10° SSE
Cosmos 1733 Rocket 3.9 06:02:34 10° S 06:06:47 54° E 06:11:01 10° NNE
COSMOS 2441 4.3 06:03:49 10° N 06:08:43 73° WNW 06:13:34 10° SSW
Okean-O 3.9 06:11:40 10° NNW 06:14:57 21° WNW 06:18:12 10° WSW
Cosmos 2221 Rocket 4.0 06:11:04 10° NNW 06:15:17 42° W 06:19:30 10° SSW
IDEFIX/ARIANE 42P 3.1 06:11:53 10° N 06:16:34 35° WNW 06:21:13 10° SW
Ariane Rocket 3.4 06:12:40 10° NNE 06:17:44 72° ESE 06:22:45 10° S
Thor Agena Rocket 3.5 06:12:58 10° S 06:18:01 66° WSW 06:23:04 10° NNW
MSX 3.9 06:13:10 10° N 06:18:49 59° WNW 06:24:27 10° SSW
CZ-2C R/B 2.9 06:14:49 10° N 06:19:41 42° WNW 06:24:27 10° SW
CZ-4 R/B 2.1 06:16:59 10° NNE 06:20:50 57° E 06:24:46 10° S
SMAP 3.2 06:21:04 10° NNE 06:25:45 86° E 06:30:24 10° SSW
Cosmos 968 Rocket 4.3 06:21:44 10° NW 06:26:23 32° W 06:31:00 10° SSW
